Regional Weather Roundup
Issued by NWS Albany, NY

Home | Current Version | Previous Version | Text Only | Print | Product List | Glossary On
Versions: 1 2 3 4 5 6 7 8 9 10 11 12 13 14 15 16 17 18 19 20 21 22 23 24 25 26 27 28 29 30 31 32 33 34 35 36 37 38 39 40 41 42 43 44 45 46 47 48 49 50
904
ASUS41 KALY 270010
RWRALY

NEW YORK STATE HOURLY WEATHER ROUNDUP
NATIONAL WEATHER SERVICE ALBANY NY
800 PM EDT MON SEP 26 2016

NOTE: "FAIR" INDICATES FEW OR NO CLOUDS BELOW 12,000 FEET WITH NO
SIGNIFICANT WEATHER AND/OR NO OBSTRUCTIONS TO VISIBILITY.

NYZ032-033-038>043-046>054-057>066-NYZ062>081-082-084-270100-
EAST


CITY           SKY/WX    TMP DP  RH WIND       PRES   REMARKS
ALBANY         CLOUDY    65  48  54 S9        29.97F
GLENS FALLS    CLOUDY    54  48  80 CALM      29.96F
POUGHKEEPSIE   CLOUDY    66  50  56 VRB6      30.02S
NEWBURGH       MOCLDY    66  54  63 S12       30.05S
MONTGOMERY     CLOUDY    67  51  56 S10       30.03R
WHITE PLAINS   CLOUDY    65  49  56 S7        30.05S
ISLIP          MOCLDY    66  50  56 S10       30.07S
NEW YORK CITY  CLOUDY    69  51  52 S17G24    30.04F
CENTRAL PARK   CLOUDY    67  50  54 VRB3      30.08S
$$

NYZ005>009-017-018-044>046-055-056-270100-
CENTRAL


CITY           SKY/WX    TMP DP  RH WIND       PRES   REMARKS
FULTON         CLOUDY    66  55  67 S8        29.88R
SYRACUSE       LGT RAIN  65  53  65 S12G21    29.89R
ROME           CLOUDY    65  53  65 S10       29.93S
ELMIRA         CLOUDY    63  55  75 SW8       29.94R
BINGHAMTON     CLOUDY    58  51  78 S10G21    29.98R
MONTICELLO     CLOUDY    61  52  72 S5        30.05S
$$

NYZ026>034-041>043-087-270100-
NORTH


CITY           SKY/WX    TMP DP  RH WIND       PRES   REMARKS
WATERTOWN      LGT RAIN  63  55  75 S7        29.85S
FORT DRUM      NOT AVBL
OGDENSBURG     LGT RAIN  59  55  86 CALM      29.86R
MASSENA        CLOUDY    61  47  59 E3        29.88R
SARANAC LAKE   CLOUDY    53  45  74 CALM      29.92R
PLATTSBURGH    PTCLDY    60  42  51 S10       29.90F
$$

NYZ001>004-010>016-019>021-085-270100-
WEST


CITY           SKY/WX    TMP DP  RH WIND       PRES   REMARKS
NIAGARA FALLS  CLOUDY    63  58  83 W7        29.88R
BUFFALO        LGT RAIN  62  59  90 SW9       29.87S
DUNKIRK        LGT RAIN  62  59  90 NW6       29.91R
JAMESTOWN      PTCLDY    57  54  88 SW9       29.94R
WELLSVILLE     LGT RAIN  60  58  92 SW6       29.96R FOG
ROCHESTER      LGT RAIN  64  62  93 SW7       29.87R
PENN YAN       LGT RAIN  64  56  75 S20G25    29.92R
$$

             KEY
       WCI = WIND CHILL INDEX
       VSB = VISIBILITY
       HX  = HEAT INDEX
$$




USA.gov is the U.S. government's official web portal to all federal, state and local government web resources and services.